星链-33666 (STARLINK-33666)

导读

STARLINK-33666是美国SpaceX星链星座的成员卫星,于2025年4月14日发射升空。作为低轨互联网星座组网卫星,它主要承担全球宽带互联网接入服务,为全球偏远地区、海上和空中用户提供互联网连接。该卫星延续星链标准设计,依托星链星座低延迟、广覆盖的优势,进一步扩充星链星座的服务容量,提升星座覆盖密度与服务稳定性。

基本信息
目录编号:
63592
目录名称:
STARLINK-33666
国际标识:
2025-076Z
轨道中心:
EARTH
卫星名称:
星链-33666
卫星全名:
星链-33666 (STARLINK-33666)
卫星状态:
在轨 (已飞行515 天)
发射日期:
2025-04-14 UTC
国别 :
美国 (US)
星等 :
--
该卫星已列入 空间交会检测服务 Space Conjunction Data Service (SCDS) ,当前飞行风险评估等级: 高风险
轨道信息
数据来源 国际轨道数据
星历时间: 2026-09-11T14:57:46+0800
9小时前
查看轨道信息
半长轴: 6861.116km
偏心率: 0.0001625
轨道倾角: 43.002°
近地点辐角 259.523°
升交点赤经 353.687°
平近点角 100.544°
近地点: 481.864km
远地点: 484.094km
周期: 94.265分钟
每日圈数: 15.276037
详细信息
固有亮度:
5
最大亮度:
2.5
卫星平台:
Starlink V1.0
覆盖范围:
全球
运营商:
太空探索技术公司
运营商所在国:
美国
制造商(研发单位):
太空探索技术公司
制造商所在国:
美国
使用方式:
暂无
卫星简介
Starlink 计划是 SpaceX 推出的全球卫星互联网项目,通过发射低轨道卫星,为全球尤其是偏远地区提供高速、低延迟的互联网服务。自 2019 年起,Starlink 已部署数千颗卫星,旨在缩小全球数字鸿沟,推动互联网普及。该项目还为军事、航空等行业提供通信支持,带来广泛经济效益。
2D轨道图
3D轨道图
轨道高度分析图
轨道倾角分析图
轨道综合分析图
查看轨道综合分析图
交会数据列表
事件ID 空间交会对象 最接近时刻(TCA) 交会距离 交会风险概率(CRP) 交会风险指数(CRI) 操作
CDM_260911-082605-705506-359224
2026-09-11T
08:26:11+0000
0.571 km
远距离
1.167875E-4 高风险 0.76
CDM_260911-170406-359206-680121
2026-09-11T
17:04:41+0000
0.671 km
远距离
7.512877E-5 中风险 0.73
CDM_260912-224105-726306-359221
2026-09-12T
22:41:36+0000
0.885 km
远距离
2.154914E-5 中风险 0.62
CDM_260910-172105-962106-359222
2026-09-10T
17:21:03+0000
0.965 km
远距离
1.650223E-5 中风险 0.59
CDM_260912-035006-247706-359221
2026-09-12T
03:50:17+0000
1.038 km
极远距离
1.072535E-5 中风险 0.56
CDM_260911-020806-340006-359222
2026-09-11T
02:08:57+0000
1.247 km
极远距离
9.50102E-6 低风险 0.55
CDM_260913-092706-347606-359221
2026-09-13T
09:27:24+0000
1.125 km
极远距离
8.872021E-6 低风险 0.54
CDM_260911-204306-359206-657521
2026-09-11T
20:43:44+0000
0.983 km
远距离
8.069208E-6 低风险 0.53
CDM_260912-045006-359206-680121
2026-09-12T
04:50:48+0000
1.376 km
极远距离
6.89002E-6 低风险 0.52
CDM_260912-035405-842106-359221
2026-09-12T
03:54:28+0000
1.353 km
极远距离
5.885375E-6 低风险 0.5
与全量物体交会距离演化趋势
与全量物体交会风险概率演化趋势